Time,TemperatureF,DewpointF,PressureIn,WindDirection,WindDirectionDegrees,WindSpeedMPH,WindSpeedGustMPH,Humidity,HourlyPrecipIn,Conditions,Clouds,dailyrainin,SolarRadiationWatts/m^2,SoftwareType,DateUTC
2013-03-23 00:00:00,34.0,23.0,29.82,WNW,286,5.0,8.0,64,0.00,,,0.00,0.0,meteohub,2013-03-23 04:00:00,
2013-03-23 00:06:00,34.0,23.0,29.81,SW,236,3.0,9.0,64,0.00,,,0.00,0.0,meteohub,2013-03-23 04:06:00,
2013-03-23 00:11:00,33.8,23.0,29.81,West,264,2.0,9.0,64,0.00,,,0.00,0.0,meteohub,2013-03-23 04:11:00,
2013-03-23 00:16:00,33.8,23.4,29.82,SW,225,0.0,6.0,65,0.00,,,0.00,0.0,meteohub,2013-03-23 04:16:00,
2013-03-23 00:21:00,34.0,23.5,29.81,WSW,248,0.0,6.0,65,0.00,,,0.00,0.0,meteohub,2013-03-23 04:21:00,
2013-03-23 00:26:00,34.0,23.5,29.81,SW,232,2.0,6.0,65,0.00,,,0.00,0.0,meteohub,2013-03-23 04:26:00,
2013-03-23 00:32:00,33.8,23.4,29.81,WSW,241,2.0,6.0,65,0.00,,,0.00,0.0,meteohub,2013-03-23 04:32:00,
2013-03-23 00:37:00,33.6,23.2,29.81,SW,235,4.0,6.0,65,0.00,,,0.00,0.0,meteohub,2013-03-23 04:37:00,
2013-03-23 00:42:00,33.6,23.2,29.81,WSW,246,3.0,6.0,65,0.00,,,0.00,0.0,meteohub,2013-03-23 04:42:00,
2013-03-23 00:47:00,33.6,23.5,29.81,WSW,248,4.0,8.0,66,0.00,,,0.00,0.0,meteohub,2013-03-23 04:47:00,
2013-03-23 00:52:00,33.4,23.4,29.81,SSW,210,3.0,8.0,66,0.00,,,0.00,0.0,meteohub,2013-03-23 04:52:00,
2013-03-23 00:57:00,33.4,23.4,29.81,West,275,5.0,8.0,66,0.00,,,0.00,0.0,meteohub,2013-03-23 04:57:00,
2013-03-23 01:02:00,33.6,23.5,29.81,West,275,0.0,6.0,66,0.00,,,0.00,0.0,meteohub,2013-03-23 05:02:00,
2013-03-23 01:07:00,33.6,23.5,29.81,SW,219,1.0,6.0,66,0.00,,,0.00,0.0,meteohub,2013-03-23 05:07:00,
2013-03-23 01:12:00,33.6,23.5,29.81,WSW,252,3.0,7.0,66,0.00,,,0.00,0.0,meteohub,2013-03-23 05:12:00,
2013-03-23 01:17:00,33.6,23.5,29.81,WNW,284,4.0,7.0,66,0.00,,,0.00,0.0,meteohub,2013-03-23 05:17:00,
2013-03-23 01:22:00,33.6,23.5,29.81,WNW,298,2.0,7.0,66,0.00,,,0.00,0.0,meteohub,2013-03-23 05:22:00,
2013-03-23 01:27:00,33.6,23.5,29.81,West,277,5.0,7.0,66,0.00,,,0.00,0.0,meteohub,2013-03-23 05:27:00,
2013-03-23 01:32:00,33.4,23.4,29.81,West,267,0.0,7.0,66,0.00,,,0.00,0.0,meteohub,2013-03-23 05:32:00,
2013-03-23 01:38:00,33.4,23.4,29.81,NW,309,2.0,7.0,66,0.00,,,0.00,0.0,meteohub,2013-03-23 05:38:00,
2013-03-23 01:43:00,33.4,23.4,29.81,WNW,296,2.0,7.0,66,0.00,,,0.00,0.0,meteohub,2013-03-23 05:43:00,
2013-03-23 01:48:00,33.4,23.4,29.81,NW,314,5.0,8.0,66,0.00,,,0.00,0.0,meteohub,2013-03-23 05:48:00,
2013-03-23 01:53:00,33.3,23.5,29.82,NW,325,4.0,8.0,67,0.00,,,0.00,0.0,meteohub,2013-03-23 05:53:00,
2013-03-23 01:58:00,33.3,23.5,29.81,NW,304,4.0,7.0,67,0.00,,,0.00,0.0,meteohub,2013-03-23 05:58:00,
2013-03-23 02:03:00,33.3,23.5,29.81,NW,304,2.0,7.0,67,0.00,,,0.00,0.0,meteohub,2013-03-23 06:03:00,
2013-03-23 02:08:00,33.3,23.2,29.81,WNW,300,4.0,7.0,66,0.00,,,0.00,0.0,meteohub,2013-03-23 06:08:00,
2013-03-23 02:13:00,33.1,23.0,29.81,WNW,301,0.0,6.0,66,0.00,,,0.00,0.0,meteohub,2013-03-23 06:13:00,
2013-03-23 02:18:00,33.1,23.4,29.81,NW,308,5.0,6.0,67,0.00,,,0.00,0.0,meteohub,2013-03-23 06:18:00,
2013-03-23 02:24:00,33.3,23.5,29.81,WNW,291,5.0,7.0,67,0.00,,,0.00,0.0,meteohub,2013-03-23 06:24:00,
2013-03-23 02:29:00,33.3,23.2,29.81,West,271,6.0,11.0,66,0.00,,,0.00,0.0,meteohub,2013-03-23 06:29:00,
2013-03-23 02:34:00,33.4,23.4,29.81,NW,319,5.0,11.0,66,0.00,,,0.00,0.0,meteohub,2013-03-23 06:34:00,
2013-03-23 02:39:00,33.4,23.4,29.81,NW,315,0.0,11.0,66,0.00,,,0.00,0.0,meteohub,2013-03-23 06:39:00,
2013-03-23 02:44:00,33.4,23.4,29.81,NW,316,4.0,12.0,66,0.00,,,0.00,0.0,meteohub,2013-03-23 06:44:00,
2013-03-23 02:49:00,33.4,23.4,29.81,WNW,298,7.0,12.0,66,0.00,,,0.00,0.0,meteohub,2013-03-23 06:49:00,
2013-03-23 02:54:00,33.4,23.4,29.81,NW,306,0.0,12.0,66,0.00,,,0.00,0.0,meteohub,2013-03-23 06:54:00,
2013-03-23 02:59:00,33.4,23.4,29.81,NW,311,4.0,7.0,66,0.00,,,0.00,0.0,meteohub,2013-03-23 06:59:00,
2013-03-23 03:05:00,33.3,23.2,29.81,NW,305,1.0,7.0,66,0.00,,,0.00,0.0,meteohub,2013-03-23 07:05:00,
2013-03-23 03:10:00,33.3,23.2,29.80,WNW,294,0.0,7.0,66,0.00,,,0.00,0.0,meteohub,2013-03-23 07:10:00,
2013-03-23 03:15:00,33.3,23.2,29.80,WNW,292,0.0,7.0,66,0.00,,,0.00,0.0,meteohub,2013-03-23 07:15:00,
2013-03-23 03:20:00,33.3,23.2,29.80,West,277,2.0,7.0,66,0.00,,,0.00,0.0,meteohub,2013-03-23 07:20:00,
2013-03-23 03:25:00,33.3,23.2,29.80,West,277,1.0,5.0,66,0.00,,,0.00,0.0,meteohub,2013-03-23 07:25:00,
2013-03-23 03:30:00,33.1,23.0,29.80,West,275,2.0,6.0,66,0.00,,,0.00,0.0,meteohub,2013-03-23 07:30:00,
2013-03-23 03:35:00,33.1,23.0,29.79,West,281,2.0,6.0,66,0.00,,,0.00,0.0,meteohub,2013-03-23 07:35:00,
2013-03-23 03:41:00,33.1,23.0,29.79,WSW,242,4.0,6.0,66,0.00,,,0.00,0.0,meteohub,2013-03-23 07:41:00,
2013-03-23 03:46:00,32.9,23.2,29.79,WNW,285,2.0,7.0,67,0.00,,,0.00,0.0,meteohub,2013-03-23 07:46:00,
2013-03-23 03:51:00,32.9,23.2,29.79,West,275,5.0,9.0,67,0.00,,,0.00,0.0,meteohub,2013-03-23 07:51:00,
2013-03-23 03:56:00,32.9,22.8,29.79,SW,226,0.0,9.0,66,0.00,,,0.00,0.0,meteohub,2013-03-23 07:56:00,
2013-03-23 04:01:00,33.1,23.0,29.79,WSW,258,4.0,9.0,66,0.00,,,0.00,0.0,meteohub,2013-03-23 08:01:00,
2013-03-23 04:06:00,32.9,22.8,29.79,WSW,246,5.0,9.0,66,0.00,,,0.00,0.0,meteohub,2013-03-23 08:06:00,
2013-03-23 04:12:00,33.1,23.0,29.79,West,268,3.0,9.0,66,0.00,,,0.00,0.0,meteohub,2013-03-23 08:12:00,
2013-03-23 04:16:00,33.1,23.0,29.79,West,264,3.0,7.0,66,0.00,,,0.00,0.0,meteohub,2013-03-23 08:16:00,
2013-03-23 04:22:00,33.1,23.0,29.79,WNW,295,2.0,7.0,66,0.00,,,0.00,0.0,meteohub,2013-03-23 08:22:00,
2013-03-23 04:27:00,33.1,23.0,29.79,West,261,1.0,7.0,66,0.00,,,0.00,0.0,meteohub,2013-03-23 08:27:00,
2013-03-23 04:32:00,33.1,23.0,29.79,SW,217,4.0,12.0,66,0.00,,,0.00,0.0,meteohub,2013-03-23 08:32:00,
2013-03-23 04:37:00,33.1,23.0,29.79,WNW,283,4.0,12.0,66,0.00,,,0.00,0.0,meteohub,2013-03-23 08:37:00,
2013-03-23 04:42:00,32.9,22.8,29.79,SW,232,3.0,12.0,66,0.00,,,0.00,0.0,meteohub,2013-03-23 08:42:00,
2013-03-23 04:47:00,32.7,22.6,29.79,SW,227,4.0,11.0,66,0.00,,,0.00,0.0,meteohub,2013-03-23 08:47:00,
2013-03-23 04:52:00,32.7,23.0,29.79,West,265,2.0,8.0,67,0.00,,,0.00,0.0,meteohub,2013-03-23 08:52:00,
2013-03-23 04:57:00,32.7,22.6,29.79,WSW,257,1.0,10.0,66,0.00,,,0.00,0.0,meteohub,2013-03-23 08:57:00,
2013-03-23 05:02:00,32.5,22.8,29.79,WSW,246,0.0,10.0,67,0.00,,,0.00,0.0,meteohub,2013-03-23 09:02:00,
2013-03-23 05:07:00,32.5,22.8,29.79,SW,233,3.0,10.0,67,0.00,,,0.00,0.0,meteohub,2013-03-23 09:07:00,
2013-03-23 05:12:00,32.5,22.8,29.79,West,265,2.0,10.0,67,0.00,,,0.00,0.0,meteohub,2013-03-23 09:12:00,
2013-03-23 05:18:00,32.4,22.6,29.80,WSW,241,0.0,10.0,67,0.00,,,0.00,0.0,meteohub,2013-03-23 09:18:00,
2013-03-23 05:23:00,32.4,22.6,29.80,WSW,242,4.0,6.0,67,0.00,,,0.00,0.0,meteohub,2013-03-23 09:23:00,
2013-03-23 05:28:00,32.0,22.6,29.79,SSW,210,5.0,6.0,68,0.00,,,0.00,0.0,meteohub,2013-03-23 09:28:00,
2013-03-23 05:33:00,32.0,22.6,29.79,SSW,205,0.0,4.0,68,0.00,,,0.00,0.0,meteohub,2013-03-23 09:33:00,
2013-03-23 05:38:00,31.8,22.5,29.80,WSW,242,3.0,5.0,68,0.00,,,0.00,0.0,meteohub,2013-03-23 09:38:00,
2013-03-23 05:43:00,31.6,22.6,29.80,WSW,242,0.0,5.0,69,0.00,,,0.00,0.0,meteohub,2013-03-23 09:43:00,
2013-03-23 05:48:00,31.6,22.6,29.80,SW,222,3.0,5.0,69,0.00,,,0.00,0.0,meteohub,2013-03-23 09:48:00,
2013-03-23 05:53:00,31.6,22.6,29.80,SW,227,3.0,5.0,69,0.00,,,0.00,0.0,meteohub,2013-03-23 09:53:00,
2013-03-23 05:58:00,31.6,23.0,29.80,SW,229,0.0,5.0,70,0.00,,,0.00,0.0,meteohub,2013-03-23 09:58:00,
2013-03-23 06:03:00,31.6,22.6,29.80,WSW,238,0.0,7.0,69,0.00,,,0.00,0.0,meteohub,2013-03-23 10:03:00,
2013-03-23 06:08:00,31.6,22.6,29.80,SW,234,3.0,7.0,69,0.00,,,0.00,0.0,meteohub,2013-03-23 10:08:00,
2013-03-23 06:14:00,31.6,22.6,29.80,WSW,247,3.0,7.0,69,0.00,,,0.00,0.0,meteohub,2013-03-23 10:14:00,
2013-03-23 06:19:00,31.6,23.0,29.81,WSW,244,4.0,6.0,70,0.00,,,0.00,0.0,meteohub,2013-03-23 10:19:00,
2013-03-23 06:24:00,31.6,22.6,29.80,WSW,242,2.0,6.0,69,0.00,,,0.00,0.0,meteohub,2013-03-23 10:24:00,
2013-03-23 06:29:00,31.5,22.8,29.80,SW,232,1.0,6.0,70,0.00,,,0.00,0.0,meteohub,2013-03-23 10:29:00,
2013-03-23 06:34:00,31.5,22.8,29.80,SW,232,1.0,6.0,70,0.00,,,0.00,0.0,meteohub,2013-03-23 10:34:00,
2013-03-23 06:39:00,31.5,22.8,29.80,WSW,250,0.0,5.0,70,0.00,,,0.00,0.0,meteohub,2013-03-23 10:39:00,
2013-03-23 06:44:00,31.5,22.8,29.80,WSW,250,0.0,5.0,70,0.00,,,0.00,0.0,meteohub,2013-03-23 10:44:00,
2013-03-23 06:49:00,31.5,22.8,29.80,SW,221,1.0,5.0,70,0.00,,,0.00,5.0,meteohub,2013-03-23 10:49:00,
2013-03-23 06:54:00,31.5,22.8,29.80,SW,222,1.0,5.0,70,0.00,,,0.00,7.0,meteohub,2013-03-23 10:54:00,
2013-03-23 06:59:00,31.5,22.8,29.80,SSW,202,0.0,4.0,70,0.00,,,0.00,9.0,meteohub,2013-03-23 10:59:00,
2013-03-23 07:04:00,31.3,22.6,29.80,SSW,213,1.0,4.0,70,0.00,,,0.00,12.0,meteohub,2013-03-23 11:04:00,
2013-03-23 07:10:00,31.3,23.0,29.80,SSW,213,0.0,5.0,71,0.00,,,0.00,14.0,meteohub,2013-03-23 11:10:00,
2013-03-23 07:15:00,31.5,23.2,29.80,SSW,213,0.0,5.0,71,0.00,,,0.00,16.0,meteohub,2013-03-23 11:15:00,
2013-03-23 07:20:00,31.8,23.5,29.80,SSW,213,0.0,5.0,71,0.00,,,0.00,19.0,meteohub,2013-03-23 11:20:00,
2013-03-23 07:25:00,32.0,23.4,29.81,SSW,213,0.0,4.0,70,0.00,,,0.00,39.0,meteohub,2013-03-23 11:25:00,
2013-03-23 07:30:00,32.0,23.4,29.80,SW,217,4.0,4.0,70,0.00,,,0.00,53.0,meteohub,2013-03-23 11:30:00,
2013-03-23 07:35:00,32.2,23.5,29.81,West,261,0.0,5.0,70,0.00,,,0.00,67.0,meteohub,2013-03-23 11:35:00,
2013-03-23 07:40:00,32.4,23.4,29.81,West,261,0.0,5.0,69,0.00,,,0.00,83.0,meteohub,2013-03-23 11:40:00,
2013-03-23 07:45:00,32.5,23.5,29.81,West,261,3.0,5.0,69,0.00,,,0.00,98.0,meteohub,2013-03-23 11:45:00,
2013-03-23 07:50:00,33.1,23.7,29.81,NW,323,6.0,6.0,68,0.00,,,0.00,118.0,meteohub,2013-03-23 11:50:00,
2013-03-23 07:55:00,33.4,23.7,29.81,WSW,248,3.0,11.0,67,0.00,,,0.00,137.0,meteohub,2013-03-23 11:55:00,
2013-03-23 08:00:00,34.2,24.1,29.81,WNW,300,2.0,11.0,66,0.00,,,0.00,155.0,meteohub,2013-03-23 12:00:00,
2013-03-23 08:05:00,34.5,23.9,29.81,WNW,299,6.0,11.0,65,0.00,,,0.00,178.0,meteohub,2013-03-23 12:05:00,
2013-03-23 08:10:00,35.1,24.1,29.81,West,261,10.0,19.0,64,0.00,,,0.00,197.0,meteohub,2013-03-23 12:10:00,
2013-03-23 08:15:00,35.4,24.1,29.81,NW,306,4.0,19.0,63,0.00,,,0.00,221.0,meteohub,2013-03-23 12:15:00,
2013-03-23 08:21:00,36.0,24.6,29.81,NNW,334,10.0,19.0,63,0.00,,,0.00,248.0,meteohub,2013-03-23 12:21:00,
2013-03-23 08:26:00,36.3,25.0,29.81,NW,304,7.0,21.0,63,0.00,,,0.00,260.0,meteohub,2013-03-23 12:26:00,
2013-03-23 08:31:00,36.5,24.3,29.81,West,264,3.0,21.0,61,0.00,,,0.00,276.0,meteohub,2013-03-23 12:31:00,
2013-03-23 08:37:00,36.9,24.6,29.80,NW,313,17.0,21.0,61,0.00,,,0.00,301.0,meteohub,2013-03-23 12:37:00,
2013-03-23 08:42:00,37.0,24.4,29.80,NNW,343,15.0,25.0,60,0.00,,,0.00,311.0,meteohub,2013-03-23 12:42:00,
2013-03-23 08:47:00,37.2,24.3,29.79,West,262,4.0,25.0,59,0.00,,,0.00,327.0,meteohub,2013-03-23 12:47:00,
2013-03-23 08:52:00,37.8,24.8,29.80,SSW,199,4.0,25.0,59,0.00,,,0.00,346.0,meteohub,2013-03-23 12:52:00,
2013-03-23 08:57:00,37.6,24.1,29.79,NW,309,9.0,22.0,58,0.00,,,0.00,364.0,meteohub,2013-03-23 12:57:00,
2013-03-23 09:02:00,38.5,24.6,29.79,WNW,290,4.0,22.0,57,0.00,,,0.00,380.0,meteohub,2013-03-23 13:02:00,
2013-03-23 09:07:00,38.5,24.1,29.79,WSW,240,17.0,21.0,56,0.00,,,0.00,394.0,meteohub,2013-03-23 13:07:00,
2013-03-23 09:12:00,38.8,24.4,29.79,WNW,295,9.0,23.0,56,0.00,,,0.00,415.0,meteohub,2013-03-23 13:12:00,
2013-03-23 09:17:00,39.0,23.7,29.79,NW,304,18.0,23.0,54,0.00,,,0.00,427.0,meteohub,2013-03-23 13:17:00,
2013-03-23 09:22:00,39.4,24.6,29.78,SSW,213,3.0,23.0,55,0.00,,,0.00,443.0,meteohub,2013-03-23 13:22:00,
2013-03-23 09:27:00,39.6,23.9,29.78,NW,308,9.0,23.0,53,0.00,,,0.00,459.0,meteohub,2013-03-23 13:27:00,
2013-03-23 09:32:00,39.9,24.6,29.78,WNW,288,12.0,23.0,54,0.00,,,0.00,475.0,meteohub,2013-03-23 13:32:00,
2013-03-23 09:37:00,40.1,24.3,29.77,WSW,247,6.0,20.0,53,0.00,,,0.00,490.0,meteohub,2013-03-23 13:37:00,
2013-03-23 09:43:00,39.7,24.1,29.77,WNW,296,13.0,20.0,53,0.00,,,0.00,508.0,meteohub,2013-03-23 13:43:00,
2013-03-23 09:48:00,40.1,24.3,29.77,NW,325,8.0,24.0,53,0.00,,,0.00,517.0,meteohub,2013-03-23 13:48:00,
2013-03-23 09:53:00,40.8,24.1,29.76,NW,311,14.0,24.0,51,0.00,,,0.00,534.0,meteohub,2013-03-23 13:53:00,
2013-03-23 09:58:00,40.6,24.8,29.77,WSW,249,6.0,24.0,53,0.00,,,0.00,552.0,meteohub,2013-03-23 13:58:00,
2013-03-23 10:03:00,40.6,23.9,29.77,WNW,302,4.0,26.0,51,0.00,,,0.00,564.0,meteohub,2013-03-23 14:03:00,
2013-03-23 10:08:00,40.8,23.5,29.77,WNW,297,8.0,26.0,50,0.00,,,0.00,578.0,meteohub,2013-03-23 14:08:00,
2013-03-23 10:13:00,41.2,24.4,29.76,North,350,13.0,26.0,51,0.00,,,0.00,591.0,meteohub,2013-03-23 14:13:00,
2013-03-23 10:18:00,42.6,25.3,29.77,SSE,155,7.0,22.0,50,0.00,,,0.00,631.0,meteohub,2013-03-23 14:18:00,
2013-03-23 10:23:00,42.3,23.9,29.77,WNW,283,9.0,22.0,48,0.00,,,0.00,663.0,meteohub,2013-03-23 14:23:00,
2013-03-23 10:28:00,41.9,23.7,29.77,WNW,296,14.0,24.0,48,0.00,,,0.00,687.0,meteohub,2013-03-23 14:28:00,
2013-03-23 10:34:00,42.6,24.3,29.78,NNW,342,11.0,24.0,48,0.00,,,0.00,728.0,meteohub,2013-03-23 14:34:00,
2013-03-23 10:39:00,43.3,24.4,29.77,WNW,301,9.0,24.0,47,0.00,,,0.00,791.0,meteohub,2013-03-23 14:39:00,
2013-03-23 10:44:00,43.0,24.1,29.78,NW,319,13.0,24.0,47,0.00,,,0.00,246.0,meteohub,2013-03-23 14:44:00,
2013-03-23 10:49:00,43.2,24.3,29.78,WSW,242,4.0,23.0,47,0.00,,,0.00,220.0,meteohub,2013-03-23 14:49:00,
2013-03-23 10:54:00,43.2,24.3,29.78,NNW,337,10.0,23.0,47,0.00,,,0.00,330.0,meteohub,2013-03-23 14:54:00,
2013-03-23 10:59:00,43.3,23.4,29.78,North,0,10.0,23.0,45,0.00,,,0.00,802.0,meteohub,2013-03-23 14:59:00,
2013-03-23 11:05:00,43.3,23.4,29.78,NW,307,9.0,23.0,45,0.00,,,0.00,287.0,meteohub,2013-03-23 15:05:00,
2013-03-23 11:10:00,42.3,23.0,29.78,WNW,299,5.0,23.0,46,0.00,,,0.00,316.0,meteohub,2013-03-23 15:10:00,
2013-03-23 11:15:00,42.6,23.4,29.78,NNW,337,13.0,23.0,46,0.00,,,0.00,323.0,meteohub,2013-03-23 15:15:00,
2013-03-23 11:20:00,44.2,23.7,29.77,WSW,238,13.0,24.0,44,0.00,,,0.00,800.0,meteohub,2013-03-23 15:20:00,
2013-03-23 11:25:00,44.1,23.5,29.77,NW,311,12.0,24.0,44,0.00,,,0.00,264.0,meteohub,2013-03-23 15:25:00,
2013-03-23 11:30:00,43.5,23.5,29.77,NW,312,4.0,23.0,45,0.00,,,0.00,264.0,meteohub,2013-03-23 15:30:00,
2013-03-23 11:35:00,43.9,23.4,29.77,NW,317,12.0,23.0,44,0.00,,,0.00,404.0,meteohub,2013-03-23 15:35:00,
2013-03-23 11:40:00,44.4,23.4,29.77,NNW,333,12.0,22.0,43,0.00,,,0.00,357.0,meteohub,2013-03-23 15:40:00,
2013-03-23 11:45:00,43.9,22.8,29.77,WNW,284,13.0,25.0,43,0.00,,,0.00,279.0,meteohub,2013-03-23 15:45:00,
2013-03-23 11:50:00,43.7,23.2,29.77,North,349,14.0,25.0,44,0.00,,,0.00,390.0,meteohub,2013-03-23 15:50:00,
2013-03-23 11:55:00,44.2,23.7,29.77,NW,306,6.0,25.0,44,0.00,,,0.00,374.0,meteohub,2013-03-23 15:55:00,
2013-03-23 12:01:00,44.4,23.9,29.77,WNW,289,0.0,24.0,44,0.00,,,0.00,260.0,meteohub,2013-03-23 16:01:00,
2013-03-23 12:06:00,44.4,23.4,29.77,NW,305,15.0,24.0,43,0.00,,,0.00,830.0,meteohub,2013-03-23 16:06:00,
2013-03-23 12:11:00,44.8,23.7,29.76,NW,312,7.0,28.0,43,0.00,,,0.00,313.0,meteohub,2013-03-23 16:11:00,
2013-03-23 12:16:00,44.6,23.5,29.76,West,259,11.0,28.0,43,0.00,,,0.00,276.0,meteohub,2013-03-23 16:16:00,
2013-03-23 12:21:00,44.2,23.2,29.77,NW,316,11.0,28.0,43,0.00,,,0.00,336.0,meteohub,2013-03-23 16:21:00,
2013-03-23 12:26:00,44.2,23.2,29.77,WNW,293,21.0,25.0,43,0.00,,,0.00,432.0,meteohub,2013-03-23 16:26:00,
2013-03-23 12:31:00,45.1,24.4,29.76,NW,312,12.0,26.0,44,0.00,,,0.00,309.0,meteohub,2013-03-23 16:31:00,
2013-03-23 12:36:00,45.1,23.9,29.77,West,265,13.0,26.0,43,0.00,,,0.00,341.0,meteohub,2013-03-23 16:36:00,
2013-03-23 12:42:00,46.2,23.9,29.76,West,279,7.0,26.0,41,0.00,,,0.00,265.0,meteohub,2013-03-23 16:42:00,
2013-03-23 12:47:00,45.7,24.4,29.76,NNW,327,10.0,23.0,43,0.00,,,0.00,211.0,meteohub,2013-03-23 16:47:00,
2013-03-23 12:52:00,43.5,24.1,29.77,NW,317,17.0,23.0,46,0.00,,,0.00,211.0,meteohub,2013-03-23 16:52:00,
2013-03-23 12:57:00,43.5,23.5,29.77,NNW,331,12.0,23.0,45,0.00,,,0.00,281.0,meteohub,2013-03-23 16:57:00,
2013-03-23 13:02:00,44.4,24.4,29.77,NNW,332,13.0,22.0,45,0.00,,,0.00,1079.0,meteohub,2013-03-23 17:02:00,
2013-03-23 13:07:00,45.3,25.2,29.77,NW,325,10.0,23.0,45,0.00,,,0.00,292.0,meteohub,2013-03-23 17:07:00,
2013-03-23 13:12:00,45.5,24.3,29.77,WNW,295,14.0,23.0,43,0.00,,,0.00,236.0,meteohub,2013-03-23 17:12:00,
2013-03-23 13:17:00,45.0,24.4,29.77,NW,309,12.0,23.0,44,0.00,,,0.00,281.0,meteohub,2013-03-23 17:17:00,
2013-03-23 13:22:00,46.2,25.5,29.76,NW,324,18.0,22.0,44,0.00,,,0.00,281.0,meteohub,2013-03-23 17:22:00,
2013-03-23 13:27:00,46.2,25.0,29.76,NW,307,17.0,23.0,43,0.00,,,0.00,336.0,meteohub,2013-03-23 17:27:00,
2013-03-23 13:32:00,45.7,23.9,29.76,West,260,4.0,23.0,42,0.00,,,0.00,229.0,meteohub,2013-03-23 17:32:00,
2013-03-23 13:37:00,45.9,24.6,29.76,NW,315,10.0,23.0,43,0.00,,,0.00,269.0,meteohub,2013-03-23 17:37:00,
2013-03-23 13:42:00,46.0,24.8,29.75,NW,325,12.0,22.0,43,0.00,,,0.00,378.0,meteohub,2013-03-23 17:42:00,
2013-03-23 13:48:00,46.9,24.4,29.75,North,350,11.0,22.0,41,0.00,,,0.00,353.0,meteohub,2013-03-23 17:48:00,
2013-03-23 13:53:00,46.9,23.9,29.75,NW,325,12.0,26.0,40,0.00,,,0.00,239.0,meteohub,2013-03-23 17:53:00,
2013-03-23 13:58:00,46.4,22.8,29.75,NW,326,14.0,26.0,39,0.00,,,0.00,276.0,meteohub,2013-03-23 17:58:00,
2013-03-23 14:03:00,46.6,23.5,29.75,NW,321,15.0,24.0,40,0.00,,,0.00,301.0,meteohub,2013-03-23 18:03:00,
2013-03-23 14:08:00,46.6,23.0,29.74,WNW,300,7.0,21.0,39,0.00,,,0.00,272.0,meteohub,2013-03-23 18:08:00,
2013-03-23 14:13:00,46.8,23.2,29.74,SW,223,1.0,22.0,39,0.00,,,0.00,865.0,meteohub,2013-03-23 18:13:00,
2013-03-23 14:18:00,48.2,23.7,29.74,NW,317,13.0,22.0,38,0.00,,,0.00,255.0,meteohub,2013-03-23 18:18:00,
2013-03-23 14:23:00,47.7,22.1,29.74,NW,319,10.0,21.0,36,0.00,,,0.00,223.0,meteohub,2013-03-23 18:23:00,
2013-03-23 14:29:00,47.5,21.9,29.74,NNW,338,10.0,24.0,36,0.00,,,0.00,865.0,meteohub,2013-03-23 18:29:00,
2013-03-23 14:34:00,48.4,22.6,29.73,WNW,298,19.0,24.0,36,0.00,,,0.00,865.0,meteohub,2013-03-23 18:34:00,
2013-03-23 14:39:00,48.6,21.4,29.73,NNW,344,7.0,24.0,34,0.00,,,0.00,202.0,meteohub,2013-03-23 18:39:00,
2013-03-23 14:44:00,48.0,22.3,29.73,NW,319,11.0,23.0,36,0.00,,,0.00,267.0,meteohub,2013-03-23 18:44:00,
2013-03-23 14:49:00,47.8,19.4,29.73,NW,314,12.0,23.0,32,0.00,,,0.00,192.0,meteohub,2013-03-23 18:49:00,
2013-03-23 14:54:00,48.4,20.7,29.73,WNW,294,18.0,27.0,33,0.00,,,0.00,814.0,meteohub,2013-03-23 18:54:00,
2013-03-23 14:59:00,47.8,20.8,29.73,WNW,302,13.0,27.0,34,0.00,,,0.00,773.0,meteohub,2013-03-23 18:59:00,
2013-03-23 15:04:00,47.7,19.9,29.73,NW,320,19.0,27.0,33,0.00,,,0.00,789.0,meteohub,2013-03-23 19:04:00,
2013-03-23 15:09:00,47.5,19.8,29.72,NNW,329,15.0,27.0,33,0.00,,,0.00,789.0,meteohub,2013-03-23 19:09:00,
2013-03-23 15:15:00,47.8,20.8,29.72,North,350,11.0,27.0,34,0.00,,,0.00,779.0,meteohub,2013-03-23 19:15:00,
2013-03-23 15:20:00,48.0,20.3,29.72,NE,51,6.0,25.0,33,0.00,,,0.00,123.0,meteohub,2013-03-23 19:20:00,
2013-03-23 15:25:00,47.7,19.9,29.72,North,355,16.0,24.0,33,0.00,,,0.00,677.0,meteohub,2013-03-23 19:25:00,
2013-03-23 15:30:00,48.2,19.8,29.72,WNW,298,15.0,29.0,32,0.00,,,0.00,679.0,meteohub,2013-03-23 19:30:00,
2013-03-23 15:35:00,48.2,19.8,29.72,NW,309,9.0,29.0,32,0.00,,,0.00,636.0,meteohub,2013-03-23 19:35:00,
2013-03-23 15:40:00,48.9,20.3,29.72,WNW,291,12.0,31.0,32,0.00,,,0.00,643.0,meteohub,2013-03-23 19:40:00,
2013-03-23 15:45:00,48.6,19.2,29.72,NNW,329,12.0,31.0,31,0.00,,,0.00,629.0,meteohub,2013-03-23 19:45:00,
2013-03-23 15:50:00,48.2,19.0,29.72,NW,323,8.0,27.0,31,0.00,,,0.00,114.0,meteohub,2013-03-23 19:50:00,
2013-03-23 15:55:00,48.7,19.4,29.72,NNW,339,15.0,27.0,31,0.00,,,0.00,599.0,meteohub,2013-03-23 19:55:00,
2013-03-23 16:00:00,48.9,20.3,29.72,NNW,327,22.0,24.0,32,0.00,,,0.00,573.0,meteohub,2013-03-23 20:00:00,
2013-03-23 16:06:00,49.6,19.4,29.72,NNW,335,8.0,25.0,30,0.00,,,0.00,568.0,meteohub,2013-03-23 20:06:00,
2013-03-23 16:11:00,49.6,19.4,29.71,NW,304,22.0,25.0,30,0.00,,,0.00,540.0,meteohub,2013-03-23 20:11:00,
2013-03-23 16:16:00,49.5,19.2,29.72,NNW,330,20.0,30.0,30,0.00,,,0.00,520.0,meteohub,2013-03-23 20:16:00,
2013-03-23 16:21:00,49.3,18.3,29.72,NNW,335,19.0,32.0,29,0.00,,,0.00,506.0,meteohub,2013-03-23 20:21:00,
2013-03-23 16:26:00,49.5,19.2,29.73,SW,227,16.0,32.0,30,0.00,,,0.00,490.0,meteohub,2013-03-23 20:26:00,
2013-03-23 16:31:00,48.7,18.0,29.73,NNE,13,24.0,32.0,29,0.00,,,0.00,475.0,meteohub,2013-03-23 20:31:00,
2013-03-23 16:36:00,48.6,18.5,29.73,NNW,330,11.0,31.0,30,0.00,,,0.00,165.0,meteohub,2013-03-23 20:36:00,
2013-03-23 16:42:00,48.7,19.4,29.73,NW,312,21.0,31.0,31,0.00,,,0.00,450.0,meteohub,2013-03-23 20:42:00,
2013-03-23 16:47:00,48.6,19.2,29.73,WNW,302,14.0,31.0,31,0.00,,,0.00,429.0,meteohub,2013-03-23 20:47:00,
2013-03-23 16:52:00,48.4,19.0,29.73,NW,305,11.0,29.0,31,0.00,,,0.00,413.0,meteohub,2013-03-23 20:52:00,
2013-03-23 16:57:00,48.6,19.2,29.73,WSW,241,10.0,25.0,31,0.00,,,0.00,403.0,meteohub,2013-03-23 20:57:00,
2013-03-23 17:02:00,48.6,19.9,29.73,WSW,240,2.0,24.0,32,0.00,,,0.00,388.0,meteohub,2013-03-23 21:02:00,
2013-03-23 17:07:00,48.7,19.4,29.73,NNW,332,12.0,24.0,31,0.00,,,0.00,369.0,meteohub,2013-03-23 21:07:00,
2013-03-23 17:12:00,48.9,19.6,29.73,NW,319,15.0,23.0,31,0.00,,,0.00,348.0,meteohub,2013-03-23 21:12:00,
2013-03-23 17:17:00,48.7,19.4,29.73,WNW,300,14.0,22.0,31,0.00,,,0.00,332.0,meteohub,2013-03-23 21:17:00,
2013-03-23 17:22:00,47.7,18.5,29.73,West,269,10.0,22.0,31,0.00,,,0.00,313.0,meteohub,2013-03-23 21:22:00,
2013-03-23 17:27:00,47.1,19.4,29.74,NNW,344,10.0,20.0,33,0.00,,,0.00,302.0,meteohub,2013-03-23 21:27:00,
2013-03-23 17:32:00,47.1,18.7,29.74,North,11,18.0,22.0,32,0.00,,,0.00,279.0,meteohub,2013-03-23 21:32:00,
2013-03-23 17:38:00,46.8,18.5,29.74,NW,319,22.0,27.0,32,0.00,,,0.00,221.0,meteohub,2013-03-23 21:38:00,
2013-03-23 17:43:00,46.0,18.5,29.74,NW,321,9.0,27.0,33,0.00,,,0.00,62.0,meteohub,2013-03-23 21:43:00,
2013-03-23 17:48:00,46.2,18.7,29.74,WNW,297,19.0,27.0,33,0.00,,,0.00,218.0,meteohub,2013-03-23 21:48:00,
2013-03-23 17:53:00,46.6,19.0,29.74,NW,309,12.0,26.0,33,0.00,,,0.00,195.0,meteohub,2013-03-23 21:53:00,
2013-03-23 17:58:00,46.2,19.4,29.75,NNW,333,14.0,25.0,34,0.00,,,0.00,179.0,meteohub,2013-03-23 21:58:00,
2013-03-23 18:03:00,46.2,18.7,29.75,NW,309,9.0,28.0,33,0.00,,,0.00,153.0,meteohub,2013-03-23 22:03:00,
2013-03-23 18:08:00,46.2,18.7,29.75,NW,306,5.0,28.0,33,0.00,,,0.00,132.0,meteohub,2013-03-23 22:08:00,
2013-03-23 18:14:00,46.2,18.7,29.75,West,261,15.0,28.0,33,0.00,,,0.00,113.0,meteohub,2013-03-23 22:14:00,
2013-03-23 18:19:00,45.7,18.1,29.76,WNW,301,12.0,21.0,33,0.00,,,0.00,93.0,meteohub,2013-03-23 22:19:00,
2013-03-23 18:24:00,45.3,18.7,29.76,WNW,289,16.0,21.0,34,0.00,,,0.00,58.0,meteohub,2013-03-23 22:24:00,
2013-03-23 18:29:00,45.0,18.9,29.76,WNW,303,11.0,21.0,35,0.00,,,0.00,35.0,meteohub,2013-03-23 22:29:00,
2013-03-23 18:34:00,44.8,18.9,29.76,NW,304,6.0,21.0,35,0.00,,,0.00,23.0,meteohub,2013-03-23 22:34:00,
2013-03-23 18:39:00,44.4,18.5,29.76,NW,308,11.0,19.0,35,0.00,,,0.00,19.0,meteohub,2013-03-23 22:39:00,
2013-03-23 18:44:00,44.2,19.0,29.77,North,350,8.0,19.0,36,0.00,,,0.00,16.0,meteohub,2013-03-23 22:44:00,
2013-03-23 18:49:00,44.1,18.9,29.77,WNW,283,8.0,23.0,36,0.00,,,0.00,16.0,meteohub,2013-03-23 22:49:00,
2013-03-23 18:54:00,43.9,19.2,29.77,NW,314,7.0,23.0,37,0.00,,,0.00,11.0,meteohub,2013-03-23 22:54:00,
2013-03-23 19:00:00,43.5,19.0,29.78,NNW,344,9.0,20.0,37,0.00,,,0.00,7.0,meteohub,2013-03-23 23:00:00,
2013-03-23 19:05:00,43.3,19.4,29.78,NW,319,8.0,20.0,38,0.00,,,0.00,5.0,meteohub,2013-03-23 23:05:00,
2013-03-23 19:10:00,43.2,19.2,29.78,NW,304,11.0,20.0,38,0.00,,,0.00,0.0,meteohub,2013-03-23 23:10:00,
2013-03-23 19:15:00,43.0,19.8,29.78,WNW,284,11.0,17.0,39,0.00,,,0.00,0.0,meteohub,2013-03-23 23:15:00,
2013-03-23 19:20:00,42.6,19.9,29.78,NNW,327,9.0,20.0,40,0.00,,,0.00,0.0,meteohub,2013-03-23 23:20:00,
2013-03-23 19:25:00,42.4,19.8,29.79,WNW,283,6.0,20.0,40,0.00,,,0.00,0.0,meteohub,2013-03-23 23:25:00,
2013-03-23 19:30:00,42.4,19.8,29.79,NNW,333,5.0,14.0,40,0.00,,,0.00,0.0,meteohub,2013-03-23 23:30:00,
2013-03-23 19:35:00,42.3,20.3,29.79,NNW,340,8.0,20.0,41,0.00,,,0.00,0.0,meteohub,2013-03-23 23:35:00,
2013-03-23 19:40:00,42.1,20.1,29.79,NW,321,6.0,20.0,41,0.00,,,0.00,0.0,meteohub,2013-03-23 23:40:00,
2013-03-23 19:45:00,41.9,19.4,29.79,NW,324,9.0,19.0,40,0.00,,,0.00,0.0,meteohub,2013-03-23 23:45:00,
2013-03-23 19:50:00,41.9,19.9,29.80,NW,323,7.0,19.0,41,0.00,,,0.00,0.0,meteohub,2013-03-23 23:50:00,
2013-03-23 19:55:00,41.7,19.2,29.80,NW,307,11.0,19.0,40,0.00,,,0.00,0.0,meteohub,2013-03-23 23:55:00,
2013-03-23 20:00:00,41.5,19.0,29.80,North,355,14.0,23.0,40,0.00,,,0.00,0.0,meteohub,2013-03-24 00:00:00,
2013-03-23 20:05:00,41.4,18.9,29.81,WNW,287,8.0,23.0,40,0.00,,,0.00,0.0,meteohub,2013-03-24 00:05:00,
2013-03-23 20:11:00,41.2,18.7,29.81,WNW,298,14.0,23.0,40,0.00,,,0.00,0.0,meteohub,2013-03-24 00:11:00,
2013-03-23 20:17:00,41.2,19.2,29.81,WNW,303,9.0,22.0,41,0.00,,,0.00,0.0,meteohub,2013-03-24 00:17:00,
2013-03-23 20:22:00,41.2,19.2,29.81,NNW,344,5.0,22.0,41,0.00,,,0.00,0.0,meteohub,2013-03-24 00:22:00,
2013-03-23 20:27:00,41.0,19.0,29.81,WNW,298,8.0,27.0,41,0.00,,,0.00,0.0,meteohub,2013-03-24 00:27:00,
2013-03-23 20:32:00,40.8,18.9,29.81,NNW,329,6.0,27.0,41,0.00,,,0.00,0.0,meteohub,2013-03-24 00:32:00,
2013-03-23 20:37:00,40.6,19.4,29.82,NNW,344,7.0,16.0,42,0.00,,,0.00,0.0,meteohub,2013-03-24 00:37:00,
2013-03-23 20:42:00,40.6,19.4,29.82,NNW,328,5.0,16.0,42,0.00,,,0.00,0.0,meteohub,2013-03-24 00:42:00,
2013-03-23 20:47:00,40.5,19.8,29.83,North,355,5.0,16.0,43,0.00,,,0.00,0.0,meteohub,2013-03-24 00:47:00,
2013-03-23 20:52:00,40.3,19.6,29.83,North,355,6.0,14.0,43,0.00,,,0.00,0.0,meteohub,2013-03-24 00:52:00,
2013-03-23 20:57:00,40.1,19.4,29.83,WNW,302,8.0,12.0,43,0.00,,,0.00,0.0,meteohub,2013-03-24 00:57:00,
2013-03-23 21:02:00,39.9,19.8,29.84,NNW,331,8.0,12.0,44,0.00,,,0.00,0.0,meteohub,2013-03-24 01:02:00,
2013-03-23 21:07:00,39.7,19.6,29.85,NW,315,6.0,17.0,44,0.00,,,0.00,0.0,meteohub,2013-03-24 01:07:00,
2013-03-23 21:12:00,39.6,19.9,29.85,NNW,327,9.0,17.0,45,0.00,,,0.00,0.0,meteohub,2013-03-24 01:12:00,
2013-03-23 21:17:00,39.4,19.8,29.85,NNW,344,8.0,26.0,45,0.00,,,0.00,0.0,meteohub,2013-03-24 01:17:00,
2013-03-23 21:23:00,39.2,19.6,29.86,NNW,333,10.0,28.0,45,0.00,,,0.00,0.0,meteohub,2013-03-24 01:23:00,
2013-03-23 21:28:00,39.0,19.4,29.85,North,5,6.0,28.0,45,0.00,,,0.00,0.0,meteohub,2013-03-24 01:28:00,
2013-03-23 21:33:00,38.8,19.4,29.85,NW,311,7.0,28.0,45,0.00,,,0.00,0.0,meteohub,2013-03-24 01:33:00,
2013-03-23 21:38:00,38.7,19.6,29.85,NNW,329,6.0,22.0,46,0.00,,,0.00,0.0,meteohub,2013-03-24 01:38:00,
2013-03-23 21:43:00,38.5,19.6,29.85,North,0,6.0,22.0,46,0.00,,,0.00,0.0,meteohub,2013-03-24 01:43:00,
2013-03-23 21:48:00,38.3,19.4,29.84,NNW,333,13.0,22.0,46,0.00,,,0.00,0.0,meteohub,2013-03-24 01:48:00,
2013-03-23 21:53:00,38.1,19.2,29.85,WNW,298,11.0,19.0,46,0.00,,,0.00,0.0,meteohub,2013-03-24 01:53:00,
2013-03-23 21:58:00,38.1,19.6,29.85,NNW,344,15.0,22.0,47,0.00,,,0.00,0.0,meteohub,2013-03-24 01:58:00,
2013-03-23 22:04:00,38.1,19.6,29.86,NW,311,5.0,22.0,47,0.00,,,0.00,0.0,meteohub,2013-03-24 02:04:00,
2013-03-23 22:09:00,37.9,19.9,29.86,NNW,344,10.0,22.0,48,0.00,,,0.00,0.0,meteohub,2013-03-24 02:09:00,
2013-03-23 22:14:00,37.8,19.8,29.86,NW,321,8.0,21.0,48,0.00,,,0.00,0.0,meteohub,2013-03-24 02:14:00,
2013-03-23 22:19:00,37.8,19.8,29.86,NW,318,8.0,16.0,48,0.00,,,0.00,0.0,meteohub,2013-03-24 02:19:00,
2013-03-23 22:24:00,37.6,19.6,29.86,NW,314,7.0,16.0,48,0.00,,,0.00,0.0,meteohub,2013-03-24 02:24:00,
2013-03-23 22:29:00,37.2,20.3,29.86,NW,323,9.0,16.0,50,0.00,,,0.00,0.0,meteohub,2013-03-24 02:29:00,
2013-03-23 22:34:00,37.2,19.8,29.86,NNW,332,4.0,14.0,49,0.00,,,0.00,0.0,meteohub,2013-03-24 02:34:00,
2013-03-23 22:39:00,37.0,19.6,29.86,NW,305,11.0,15.0,49,0.00,,,0.00,0.0,meteohub,2013-03-24 02:39:00,
2013-03-23 22:45:00,37.0,20.1,29.86,NW,311,8.0,15.0,50,0.00,,,0.00,0.0,meteohub,2013-03-24 02:45:00,
2013-03-23 22:49:00,37.0,20.1,29.86,North,355,7.0,15.0,50,0.00,,,0.00,0.0,meteohub,2013-03-24 02:49:00,
2013-03-23 22:54:00,36.9,20.5,29.86,NNW,343,9.0,13.0,51,0.00,,,0.00,0.0,meteohub,2013-03-24 02:54:00,
2013-03-23 23:00:00,36.9,20.5,29.86,NNW,340,8.0,18.0,51,0.00,,,0.00,0.0,meteohub,2013-03-24 03:00:00,
2013-03-23 23:05:00,36.7,20.3,29.86,NNE,12,13.0,18.0,51,0.00,,,0.00,0.0,meteohub,2013-03-24 03:05:00,
2013-03-23 23:10:00,36.7,20.3,29.86,NW,317,8.0,19.0,51,0.00,,,0.00,0.0,meteohub,2013-03-24 03:10:00,
2013-03-23 23:15:00,36.5,20.1,29.86,NNW,343,9.0,19.0,51,0.00,,,0.00,0.0,meteohub,2013-03-24 03:15:00,
2013-03-23 23:20:00,36.5,20.1,29.87,WNW,300,6.0,15.0,51,0.00,,,0.00,0.0,meteohub,2013-03-24 03:20:00,
2013-03-23 23:25:00,36.5,19.6,29.87,NW,324,9.0,15.0,50,0.00,,,0.00,0.0,meteohub,2013-03-24 03:25:00,
2013-03-23 23:30:00,36.3,19.4,29.86,WNW,298,8.0,15.0,50,0.00,,,0.00,0.0,meteohub,2013-03-24 03:30:00,
2013-03-23 23:35:00,36.3,19.0,29.87,WNW,290,18.0,18.0,49,0.00,,,0.00,0.0,meteohub,2013-03-24 03:35:00,
2013-03-23 23:40:00,36.3,19.4,29.87,WNW,288,6.0,18.0,50,0.00,,,0.00,0.0,meteohub,2013-03-24 03:40:00,
2013-03-23 23:46:00,36.1,19.2,29.87,NNW,336,8.0,18.0,50,0.00,,,0.00,0.0,meteohub,2013-03-24 03:46:00,
2013-03-23 23:51:00,36.1,19.2,29.86,NW,304,8.0,18.0,50,0.00,,,0.00,0.0,meteohub,2013-03-24 03:51:00,
2013-03-23 23:56:00,36.1,19.2,29.86,NW,315,7.0,19.0,50,0.00,,,0.00,0.0,meteohub,2013-03-24 03:56:00,